User: anonymous   Login
Location: Unspecified
(0.0000°N, 0.0000°E)
Time: 03:23:40
(UTC+00:00)
Language:

STARLINK-3529 - Orbit

View from above orbital plane
View from above orbital plane
View from above satellite
View from above satellite

Ground track
Ground track

The orbit is defined by the following mean orbital elements,

1 51724U          26145.54489103 +.00000000 +00000-0 +18655-4 0 00003
2 51724  53.2140 344.1039 0001498  92.4817 267.6347 15.08837705    02
Epoch (UTC): 25 May 2026 13:04:38
Eccentricity: 0.0001498
inclination: 53.2140°
perigee height: 539 km
apogee height: 541 km
right ascension of ascending node: 344.1039°
argument of perigee: 92.4817°
revolutions per day: 15.08837705
mean anomaly at epoch: 267.6347°

The dashed part of the orbit path shows where the satellite is in the earth's shadow,  

DLR